TimeCDT,TemperatureF,Dew PointF,Humidity,Sea Level PressureIn,VisibilityMPH,Wind Direction,Wind SpeedMPH,Gust SpeedMPH,PrecipitationIn,Events,Conditions,WindDirDegrees,DateUTC
1:00 AM,-30,-39,43,30.71,15,West,2.3,,,Snow,Snow,260,2013-04-04 06:00:00
1:00 AM,-29.2,-38.2,62,30.71,15.0,West,2.3,-,N/A,,Clear,280,2013-04-04 06:00:00
2:00 AM,-31.0,-40.0,62,30.73,15.0,South,2.3,-,N/A,,Clear,180,2013-04-04 07:00:00
3:00 AM,-29.2,-36.4,68,30.74,15.0,SSE,2.3,-,N/A,,Clear,150,2013-04-04 08:00:00
4:00 AM,-32.8,-40.0,68,30.76,15.0,Calm,Calm,-,N/A,,Clear,0,2013-04-04 09:00:00
6:00 AM,-32.8,-41.8,62,30.78,15.0,NNW,3.5,-,N/A,,Partly Cloudy,340,2013-04-04 11:00:00
7:00 AM,-32,-40,46,30.79,15,WSW,3.5,,,Snow,Snow,240,2013-04-04 12:00:00
7:00 AM,-32.8,-40.0,68,30.79,15.0,WSW,3.5,-,N/A,,Clear,240,2013-04-04 12:00:00
8:00 AM,-31.0,-40.0,62,30.79,15.0,WNW,2.3,-,N/A,,Clear,300,2013-04-04 13:00:00
9:00 AM,-29.2,-40.0,56,30.80,15.0,Calm,Calm,-,N/A,,Clear,0,2013-04-04 14:00:00
10:00 AM,-27.4,-38.2,57,30.79,15.0,Calm,Calm,-,N/A,,Clear,0,2013-04-04 15:00:00
12:00 PM,-25.6,-34.6,63,30.80,15.0,SE,3.5,-,N/A,,Clear,130,2013-04-04 17:00:00
1:00 PM,-25,-35,41,30.80,15,ESE,3.5,,,Snow,Snow,120,2013-04-04 18:00:00
1:00 PM,-25.6,-34.6,63,30.80,15.0,SE,2.3,-,N/A,,Partly Cloudy,130,2013-04-04 18:00:00
2:00 PM,-23.8,-34.6,57,30.80,15.0,Calm,Calm,-,N/A,,Partly Cloudy,0,2013-04-04 19:00:00
3:00 PM,-23.8,-32.8,63,30.82,15.0,SE,2.3,-,N/A,,Partly Cloudy,130,2013-04-04 20:00:00
4:00 PM,-23.8,-32.8,63,30.82,15.0,East,2.3,-,N/A,,Partly Cloudy,100,2013-04-04 21:00:00
5:00 PM,-22.0,-32.8,57,30.82,15.0,Calm,Calm,-,N/A,,Partly Cloudy,0,2013-04-04 22:00:00
6:00 PM,-23.8,-32.8,63,30.81,15.0,Calm,Calm,-,N/A,,Partly Cloudy,0,2013-04-04 23:00:00
7:00 PM,-23,-33,41,30.81,15,ENE,2.3,,,,Partly Cloudy,60,2013-04-05 00:00:00
7:00 PM,-23.8,-32.8,63,30.81,15.0,Calm,Calm,-,N/A,,Clear,0,2013-04-05 00:00:00
8:00 PM,-23.8,-32.8,63,30.82,15.0,Calm,Calm,-,N/A,,Clear,0,2013-04-05 01:00:00
9:00 PM,-23.8,-34.6,57,30.82,15.0,Calm,Calm,-,N/A,,Clear,0,2013-04-05 02:00:00
10:00 PM,-23.8,-32.8,63,30.82,15.0,East,2.3,-,N/A,,Clear,90,2013-04-05 03:00:00